Detroit Lakes, MN

5:56 AM CST on February 13, 2016 (GMT -0600)
Detroit Lakes

Weather History for KDTL - January, 2013

Change the Weather History Date:

Tuesday, January 29, 2013

  Actual Average Record
Temperature  
Mean Temperature 20 °F -  
Max Temperature 28 °F 17 °F 45 °F (1992)
Min Temperature 12 °F -4 °F -43 °F (1952)
Degree Days  
Heating Degree Days 45    
Moisture  
Dew Point 21 °F    
Average Humidity 96    
Maximum Humidity 100    
Minimum Humidity 92    
Precipitation  
Precipitation 0.07 in - - ()
Sea Level Pressure  
Sea Level Pressure 29.73 in    
Wind  
Wind Speed 9 mph (NNW)    
Max Wind Speed 20 mph    
Max Gust Speed 25 mph    
Visibility 5 miles    
Events Fog , Snow    
Averages and records for this station are not official NWS values.
T = Trace of Precipitation, MM = Missing Value Source: NWS Daily Summary

Daily Weather History Graph

Daily Weather History Graph

Search for Another Location

Airport or City:

Trip Planner

Search our weather history database for the weather conditions in past years. The results will help you decide how hot, cold, wet, or windy it might be!

Date:

Astronomy

Jan. 29, 2013 Rise Set
Actual Time 7:51 AM CST 5:22 PM CST
Civil Twilight 7:18 AM CST 5:55 PM CST
Nautical Twilight 6:42 AM CST 6:32 PM CST
Astronomical Twilight 6:06 AM CST 7:07 PM CST
Moon 8:35 PM CST (1/29) 8:35 AM CST (1/29)
Length of Visible Light 10h 36m
Length of Day
9h 31m
Waning Gibbous, 93% of the Moon is Illuminated
Jan 29
Waning Gibbous
Feb 3
Last Quarter
Feb 10
New
Feb 17
First Quarter
Feb 25
Full

Hourly Weather History & Observations

Time (CST) Temp. Windchill Dew Point Humidity Pressure Visibility Wind Dir Wind Speed Gust Speed Precip Events Conditions
12:13 AM 26.6 °F 22.6 °F 26.6 °F 100% 29.66 in 1.5 mi NNE 3.5 mph - N/A Snow Light Snow
12:32 AM 28.4 °F - 26.6 °F 93% 29.66 in 1.5 mi Calm Calm - 0.02 in Snow Light Snow
12:53 AM 28.4 °F 23.3 °F 26.6 °F 93% 29.66 in 1.8 mi NW 4.6 mph - 0.04 in Snow Light Snow
1:13 AM 26.6 °F 19.1 °F 26.6 °F 100% 29.65 in 1.8 mi NW 6.9 mph - 0.01 in Snow Light Snow
1:32 AM 26.6 °F 18.2 °F 26.6 °F 100% 29.63 in 1.5 mi NNW 8.1 mph - 0.02 in Snow Light Snow
1:53 AM 26.6 °F 16.8 °F 26.6 °F 100% 29.63 in 2.0 mi NNW 10.4 mph - 0.02 in Snow Light Snow
2:13 AM 26.6 °F 17.5 °F 26.6 °F 100% 29.64 in 2.5 mi NNW 9.2 mph - N/A Snow Light Snow
2:52 AM 26.6 °F 18.2 °F 26.6 °F 100% 29.64 in 2.0 mi NNW 8.1 mph - N/A Snow Light Snow
3:13 AM 26.6 °F 19.1 °F 26.6 °F 100% 29.65 in 2.5 mi NNW 6.9 mph - N/A Snow Light Snow
3:33 AM 26.6 °F 18.2 °F 24.8 °F 93% 29.63 in 1.8 mi North 8.1 mph - 0.01 in Snow Light Snow
3:57 AM 26.6 °F 19.1 °F 24.8 °F 93% 29.63 in 2.5 mi NNW 6.9 mph - N/A Snow Light Snow
4:13 AM 26.6 °F 19.1 °F 24.8 °F 93% 29.63 in 2.0 mi NNW 6.9 mph - N/A Snow Light Snow
4:33 AM 26.6 °F 17.5 °F 24.8 °F 93% 29.63 in 2.5 mi NNW 9.2 mph - N/A Snow Light Snow
5:13 AM 24.8 °F 14.6 °F 23.0 °F 93% 29.63 in 3.0 mi NNW 10.4 mph - N/A   Overcast
5:33 AM 24.8 °F 15.3 °F 23.0 °F 93% 29.63 in 3.0 mi NNW 9.2 mph - N/A   Overcast
6:13 AM 23.0 °F 13.1 °F 23.0 °F 100% 29.62 in 4.0 mi NNW 9.2 mph - N/A   Overcast
6:33 AM 23.0 °F 13.9 °F 23.0 °F 100% 29.61 in 4.0 mi North 8.1 mph - N/A   Overcast
6:52 AM 23.0 °F 13.9 °F 23.0 °F 100% 29.63 in 4.0 mi NW 8.1 mph - N/A   Overcast
7:13 AM 23.0 °F 11.7 °F 21.2 °F 93% 29.66 in 4.0 mi NW 11.5 mph - N/A   Overcast
7:32 AM 23.0 °F 13.1 °F 21.2 °F 93% 29.66 in 4.0 mi NW 9.2 mph - N/A   Overcast
7:53 AM 21.2 °F 10.1 °F 21.2 °F 100% 29.66 in 4.0 mi NNW 10.4 mph - N/A   Overcast
8:13 AM 21.2 °F 10.9 °F 21.2 °F 100% 29.68 in 2.5 mi NW 9.2 mph - N/A   Overcast
8:32 AM 21.2 °F 10.9 °F 21.2 °F 100% 29.68 in 1.8 mi NW 9.2 mph - N/A   Overcast
8:53 AM 21.2 °F 10.9 °F 21.2 °F 100% 29.68 in 0.8 mi NW 9.2 mph - N/A   Overcast
9:13 AM 21.2 °F 10.1 °F 21.2 °F 100% 29.69 in 0.8 mi NNW 10.4 mph - N/A   Overcast
9:32 AM 21.2 °F 10.9 °F 21.2 °F 100% 29.69 in 0.5 mi NW 9.2 mph - N/A Fog Light Freezing Fog
9:53 AM 21.2 °F 10.1 °F 21.2 °F 100% 29.70 in 0.2 mi NNW 10.4 mph - N/A Fog Light Freezing Fog
10:13 AM 21.2 °F 9.5 °F 21.2 °F 100% 29.69 in 0.2 mi NNW 11.5 mph - N/A Fog Light Freezing Fog
10:32 AM 21.2 °F 9.5 °F 21.2 °F 100% 29.70 in 0.5 mi NNW 11.5 mph - N/A Fog Light Freezing Fog
10:53 AM 23.0 °F 12.4 °F 21.2 °F 93% 29.71 in 0.8 mi NNW 10.4 mph - N/A   Overcast
11:13 AM 23.0 °F 11.1 °F 23.0 °F 100% 29.71 in 2.0 mi NNW 12.7 mph - N/A   Overcast
11:32 AM 23.0 °F 12.4 °F 23.0 °F 100% 29.71 in 3.0 mi NW 10.4 mph - N/A   Overcast
11:53 AM 23.0 °F 11.7 °F 21.2 °F 93% 29.71 in 4.0 mi NW 11.5 mph - N/A   Overcast
12:13 PM 23.0 °F 11.7 °F 21.2 °F 93% 29.71 in 4.0 mi NW 11.5 mph 17.3 mph N/A   Overcast
12:32 PM 21.2 °F 9.5 °F 21.2 °F 100% 29.73 in 3.0 mi NW 11.5 mph - N/A   Overcast
12:53 PM 21.2 °F 8.3 °F 21.2 °F 100% 29.73 in 4.0 mi NNW 13.8 mph - N/A   Overcast
1:13 PM 21.2 °F 9.5 °F 21.2 °F 100% 29.73 in 4.0 mi NNW 11.5 mph - N/A   Overcast
1:32 PM 21.2 °F 8.3 °F 21.2 °F 100% 29.71 in 5.0 mi NNW 13.8 mph - N/A   Overcast
1:53 PM 23.0 °F 10.1 °F 21.2 °F 93% 29.72 in 7.0 mi North 15.0 mph 21.9 mph N/A   Overcast
2:13 PM 23.0 °F 10.6 °F 23.0 °F 100% 29.72 in 7.0 mi North 13.8 mph 18.4 mph N/A   Overcast
2:32 PM 23.0 °F 10.6 °F 21.2 °F 93% 29.73 in 10.0 mi NNW 13.8 mph 20.7 mph N/A   Overcast
2:53 PM 23.0 °F 10.1 °F 21.2 °F 93% 29.73 in 10.0 mi NNW 15.0 mph 21.9 mph N/A   Overcast
3:12 PM 23.0 °F 12.4 °F 21.2 °F 93% 29.74 in 10.0 mi North 10.4 mph 17.3 mph N/A   Overcast
3:53 PM 23.0 °F 12.4 °F 21.2 °F 93% 29.76 in 7.0 mi North 10.4 mph 20.7 mph N/A   Overcast
4:12 PM 23.0 °F 12.4 °F 21.2 °F 93% 29.77 in 10.0 mi North 10.4 mph 20.7 mph N/A   Overcast
4:33 PM 23.0 °F 10.1 °F 21.2 °F 93% 29.78 in 7.0 mi North 15.0 mph 19.6 mph N/A   Overcast
4:53 PM 23.0 °F 11.7 °F 21.2 °F 93% 29.79 in 5.0 mi NNW 11.5 mph - N/A   Overcast
5:12 PM 23.0 °F 11.7 °F 21.2 °F 93% 29.79 in 4.0 mi North 11.5 mph - N/A   Overcast
5:33 PM 23.0 °F 10.6 °F 21.2 °F 93% 29.79 in 5.0 mi NNW 13.8 mph 18.4 mph N/A   Overcast
5:53 PM 23.0 °F 9.6 °F 21.2 °F 93% 29.78 in 7.0 mi NNW 16.1 mph - N/A   Overcast
6:12 PM 21.2 °F 7.8 °F 19.4 °F 93% 29.78 in 7.0 mi NNW 15.0 mph 23.0 mph N/A   Mostly Cloudy
6:33 PM 21.2 °F 8.9 °F 19.4 °F 93% 29.78 in 10.0 mi NNW 12.7 mph - N/A   Mostly Cloudy
6:53 PM 21.2 °F 8.3 °F 19.4 °F 93% 29.80 in 7.0 mi NW 13.8 mph - N/A Snow Light Snow
7:12 PM 19.4 °F 6.6 °F 19.4 °F 100% 29.82 in 7.0 mi NNW 12.7 mph - N/A Snow Light Snow
7:33 PM 19.4 °F 6.6 °F 19.4 °F 100% 29.85 in 7.0 mi NNW 12.7 mph - N/A Snow Light Snow
7:53 PM 19.4 °F 6.0 °F 17.6 °F 93% 29.86 in 7.0 mi NW 13.8 mph - N/A Snow Light Snow
8:12 PM 17.6 °F 3.7 °F 17.6 °F 100% 29.85 in 7.0 mi NNW 13.8 mph - N/A Snow Light Snow
8:33 PM 17.6 °F 3.2 °F 15.8 °F 93% 29.84 in 10.0 mi NNW 15.0 mph - N/A Snow Light Snow
8:53 PM 15.8 °F -1.1 °F 14.0 °F 93% 29.83 in 7.0 mi NNW 19.6 mph - N/A   Overcast
9:12 PM 15.8 °F 0.9 °F 14.0 °F 93% 29.83 in 7.0 mi NNW 15.0 mph 25.3 mph N/A Snow Light Snow
9:33 PM 14.0 °F -0.8 °F 12.2 °F 93% 29.85 in 7.0 mi NNW 13.8 mph - N/A Snow Light Snow
9:53 PM 14.0 °F -0.8 °F 12.2 °F 93% 29.86 in 7.0 mi NNW 13.8 mph - N/A Snow Light Snow
10:12 PM 14.0 °F -0.8 °F 12.2 °F 93% 29.85 in 10.0 mi NNW 13.8 mph - N/A   Overcast
10:33 PM 14.0 °F -1.4 °F 12.2 °F 93% 29.85 in 7.0 mi NNW 15.0 mph - N/A Snow Light Snow
10:53 PM 12.2 °F -4.3 °F 10.4 °F 92% 29.85 in 7.0 mi NNW 16.1 mph 21.9 mph N/A Snow Light Snow
11:12 PM 12.2 °F -4.8 °F 10.4 °F 92% 29.87 in 7.0 mi NNW 17.3 mph - N/A Snow Light Snow
11:33 PM 12.2 °F -4.8 °F 10.4 °F 92% 29.88 in 7.0 mi NNW 17.3 mph 23.0 mph N/A Snow Light Snow
11:53 PM 12.2 °F -4.8 °F 10.4 °F 92% 29.85 in 7.0 mi NNW 17.3 mph - N/A Snow Light Snow